Hourly Data Report for April 09, 2006

TORONTO CITY
ONTARIO

43°40'00.000" N
79°24'00.000" W
112.50 m
6158355
71508
XTO

Download Data

Hourly Data (April 2006)
Hourly Data Report for April 9, 2006
TIME
LST
Temp Definition
°C
Dew Point Definition
°C
Rel Hum Definition
%
Precip. Amount Definition
mm

Wind Dir Definition
10's deg

Wind Spd Definition
km/h
Visibility Definition
km
Stn Press Definition
kPa
Hmdx Definition


Wind Chill Definition


Weather Definition


00:00 0.3 -5.2 67   LegendMM LegendMM   100.75     LegendNANA
01:00 0.2 -4.7 70   LegendMM LegendMM   100.77     LegendNANA
02:00 0.0 -4.9 70   LegendMM LegendMM   100.75     LegendNANA
03:00 0.0 -4.8 70   LegendMM LegendMM   100.78     LegendNANA
04:00 -0.1 -4.6 72   LegendMM LegendMM   100.83     LegendNANA
05:00 0.0 -4.4 72   LegendMM LegendMM   100.90     LegendNANA
06:00 -0.1 -4.3 73   LegendMM LegendMM   100.95     LegendNANA
07:00 0.3 -3.5 76   LegendMM LegendMM   101.04     LegendNANA
08:00 2.0 -2.9 70   LegendMM LegendMM   101.08     LegendNANA
09:00 4.1 -2.2 63   LegendMM LegendMM   101.10     LegendNANA
10:00 6.5 -2.7 52   LegendMM LegendMM   101.08     LegendNANA
11:00 6.7 -3.3 49   LegendMM LegendMM   101.05     LegendNANA
12:00 6.4 -3.8 48   LegendMM LegendMM   101.02     LegendNANA
13:00 7.3 -2.6 49   LegendMM LegendMM   100.96     LegendNANA
14:00 7.7 -3.5 45   LegendMM LegendMM   100.90     LegendNANA
15:00 8.2 -4.6 40   LegendMM LegendMM   100.85     LegendNANA
16:00 8.3 -4.3 41   LegendMM LegendMM   100.80     LegendNANA
17:00 7.8 -2.7 47   LegendMM LegendMM   100.79     LegendNANA
18:00 7.8 0.3 59   LegendMM LegendMM   100.81     LegendNANA
19:00 6.6 0.9 67   LegendMM LegendMM   100.84     LegendNANA
20:00 6.0 1.3 72   LegendMM LegendMM   100.87     LegendNANA
21:00 5.3 1.6 77   LegendMM LegendMM   100.90     LegendNANA
22:00 5.6 1.0 72   LegendMM LegendMM   100.88     LegendNANA
23:00 6.1 0.1 65   LegendMM LegendMM   100.88     LegendNANA

Notes on Data Quality.

Legend

  • E = Estimated
  • M = Missing
  • NA = Not Available*
  • [empty] = Indicates an unobserved value
Date modified: